STARLINK-35902, 66626

Orbit data source: Space-Track

STARLINK-35902, 66626 is a payload satellite owned by SpaceX/Seattle (US) in LEO that was launched on Sun, 23 Nov 2025 UTC via an FALCON 9 launch vehicle from the Air Force Western Test Range (AFWTR). Payload-class satellites include a variety of spacecraft equipped with specific instruments for various scientific and technological missions. These include communications satellites like Starlink; space stations such as the ISS; scientific satellites like the Hubble; Earth observation satellites from companies like Planet Labs, Umbra, and HawkEye 360; GPS; miniature CubeSats for education and research; and military/defense satellites.

Loading next visibility...
Identifier
66626, 2025-271K
Orbit
LEO
Country
Flag of USUS
Related business
Manufacturer
SpaceX/Seattle
Mission
Operational Commercial Communications
Bus & Motor
STARLINK V2MO, Unknown motor
Mass
575 kg wet, ~530 kg dry
Launch date (UTC)
2025-11-23 (1 month ago)
Launch vehicle
FALCON 9
Launch site
Air Force Western Test Range (AFWTR)
Object type
Payload
Rocket body
Debris
Shape & HBR
Box + 2 Pan, 17.7 m
Radar Cross Section
36.964 m²

Expand to show TLE details & history
Last TLE update: 15 hours ago

TLE from 15 hours ago
0 STARLINK-35902
1 66626U 25271K   25355.00002315  .00006786  00000-0  17951-3 0  9997
2 66626  53.1595 148.0064 0001501  83.5733 247.5443 15.39615057  5573
Epoch: 2025-12-21T00:00Z
TLE epoch observation values (Epoch: 2025-12-21T00:00:02.000Z)
Latitude
-22.94477°
Longitude
39.79402°
Altitude
454.186 km
Speed
7.64 km/s
True Right ascension
08h 38m 29s
True Declination
-22° 48' 58"
Sunlit
Object was in full shadow at epoch
Visualization orbit readout
Latitude
Unknown
Longitude
Unknown
Altitude
Unknown
Speed
Unknown
Apparent Right ascension
Unknown
Apparent Declination
Unknown
Sunlit
N/A
Visualization observer readout
Local Sidereal Time
13:58:58
Azimuth
Unknown
Elevation
Unknown
Doppler factor
Unknown
Orbital elements
Apogee altitude
448.529 km
Perigee altitude
446.48 km
Semi-major axis
6,825.641 km
Eccentricity
0.00015
Inclination
53.1595°
RAAN
148.0064°
Arg. of periapsis
83.5733°
True anomaly
247.52841°
Mean anomaly
247.5443°
Eccentric anomaly
247.53635°
Mean motion
3.84882 °/min
Orbital period
93.54 mins
BSTAR
0.00017951
Loading maneuver chart data...
Computing Atmospheric mass density...
Loading historical data...
Loading historical data...
Loading historical data...
Loading historical data...
Loading historical data...
Loading historical data...
Loading historical data...

Documentation

Showing up to 5 results
|